Orbital Elements at Epoch 2459000.5 (2020-May-31.0) TDB
Reference: JPL 30 (heliocentric ecliptic J2000)
Element | Value | Uncertainty (1-sigma) | Units |
e | .1122095736522815 | 3.7798e-08 | |
a | 3.068280347239004 | 1.9632e-08 | au |
q | 2.723989917629641 | 1.1546e-07 | au |
i | 13.04560179683519 | 4.1054e-06 | deg |
node | 63.20671768171899 | 2.1012e-05 | deg |
peri | 18.56110591991418 | 3.5954e-05 | deg |
M | 57.4821457142859 | 2.5831e-05 | deg |
tp | 2458687.047704312897 (2019-Jul-22.54770431) | 0.00014124 | TDB |
period | 1963.093497035418 5.37 | 1.8841e-05 5.158e-08 | d yr |
n | .1833840316539466 | 1.7601e-09 | deg/d |
Q | 3.412570776848367 | 2.1835e-08 | au |
|
| | Orbit Determination Parameters
Additional Information
|